TimeCDT,TemperatureF,Dew PointF,Humidity,Sea Level PressureIn,VisibilityMPH,Wind Direction,Wind SpeedMPH,Gust SpeedMPH,PrecipitationIn,Events,Conditions,WindDirDegrees,DateUTC
12:15 AM,84.2,69.8,62,29.90,10.0,NNE,5.8,-,N/A,,Overcast,20,2013-09-02 05:15:00
12:35 AM,84.2,69.8,62,29.91,10.0,NNE,10.4,16.1,N/A,,Mostly Cloudy,30,2013-09-02 05:35:00
12:55 AM,84.2,71.6,66,29.90,10.0,ENE,8.1,-,N/A,Rain,Light Rain,70,2013-09-02 05:55:00
1:15 AM,82.4,71.6,70,29.90,10.0,East,4.6,-,N/A,Thunderstorm,Unknown,90,2013-09-02 06:15:00
1:35 AM,80.6,71.6,74,29.91,10.0,South,6.9,-,N/A,Rain-Thunderstorm,Light Thunderstorms and Rain,190,2013-09-02 06:35:00
1:55 AM,80.6,71.6,74,29.91,10.0,ESE,3.5,-,N/A,Thunderstorm,Thunderstorm,120,2013-09-02 06:55:00
2:15 AM,80.6,69.8,70,29.91,10.0,Calm,Calm,-,N/A,,Light Drizzle,0,2013-09-02 07:15:00
2:35 AM,80.6,69.8,70,29.90,10.0,East,3.5,-,N/A,,Scattered Clouds,80,2013-09-02 07:35:00
2:55 AM,80.6,68.0,65,29.90,10.0,Calm,Calm,-,N/A,,Scattered Clouds,0,2013-09-02 07:55:00
3:15 AM,78.8,69.8,74,29.90,10.0,Calm,Calm,-,N/A,,Scattered Clouds,0,2013-09-02 08:15:00
3:35 AM,78.8,68.0,69,29.91,10.0,Calm,Calm,-,N/A,,Mostly Cloudy,0,2013-09-02 08:35:00
3:55 AM,80.6,68.0,65,29.91,10.0,Calm,Calm,-,N/A,,Overcast,0,2013-09-02 08:55:00
4:15 AM,78.8,68.0,69,29.91,10.0,Calm,Calm,-,N/A,,Overcast,0,2013-09-02 09:15:00
4:35 AM,78.8,68.0,69,29.91,10.0,Calm,Calm,-,N/A,,Mostly Cloudy,0,2013-09-02 09:35:00
4:55 AM,78.8,68.0,69,29.91,10.0,NE,3.5,-,N/A,Thunderstorm,Mostly Cloudy,50,2013-09-02 09:55:00
5:15 AM,78.8,68.0,69,29.91,10.0,Calm,Calm,-,N/A,Thunderstorm,Scattered Clouds,0,2013-09-02 10:15:00
5:35 AM,77.0,68.0,74,29.92,10.0,Calm,Calm,-,N/A,,Mostly Cloudy,0,2013-09-02 10:35:00
5:55 AM,77.0,68.0,74,29.92,10.0,Calm,Calm,-,N/A,,Overcast,0,2013-09-02 10:55:00
6:15 AM,77.0,68.0,74,29.93,10.0,Calm,Calm,-,N/A,,Overcast,0,2013-09-02 11:15:00
6:35 AM,77.0,68.0,74,29.94,10.0,Calm,Calm,-,N/A,,Overcast,0,2013-09-02 11:35:00
6:55 AM,77.0,68.0,74,29.95,10.0,Calm,Calm,-,N/A,,Overcast,0,2013-09-02 11:55:00
7:15 AM,77.0,68.0,74,29.96,10.0,Calm,Calm,-,N/A,,Mostly Cloudy,0,2013-09-02 12:15:00
7:35 AM,77.0,68.0,74,29.96,10.0,Calm,Calm,-,N/A,,Scattered Clouds,0,2013-09-02 12:35:00
7:55 AM,78.8,69.8,74,29.97,10.0,North,3.5,-,N/A,Thunderstorm,Clear,10,2013-09-02 12:55:00
8:15 AM,78.8,69.8,74,29.98,10.0,Calm,Calm,-,N/A,Thunderstorm,Clear,0,2013-09-02 13:15:00
8:35 AM,78.8,69.8,74,29.98,10.0,NE,5.8,-,N/A,,Clear,40,2013-09-02 13:35:00
8:55 AM,78.8,71.6,78,29.99,10.0,NNE,8.1,-,N/A,,Clear,30,2013-09-02 13:55:00
9:15 AM,80.6,71.6,74,29.99,10.0,NE,4.6,-,N/A,,Clear,40,2013-09-02 14:15:00
9:35 AM,82.4,71.6,70,30.00,10.0,NE,4.6,-,N/A,,Scattered Clouds,50,2013-09-02 14:35:00
9:55 AM,82.4,71.6,70,30.00,10.0,NE,4.6,-,N/A,,Scattered Clouds,40,2013-09-02 14:55:00
10:15 AM,82.4,69.8,66,30.01,10.0,NE,4.6,-,N/A,,Scattered Clouds,40,2013-09-02 15:15:00
10:35 AM,86.0,69.8,58,30.01,10.0,Calm,Calm,-,N/A,,Scattered Clouds,0,2013-09-02 15:35:00
10:55 AM,86.0,69.8,58,30.01,10.0,NW,3.5,-,N/A,,Scattered Clouds,320,2013-09-02 15:55:00
11:15 AM,87.8,69.8,55,30.01,10.0,NNE,5.8,-,N/A,,Scattered Clouds,20,2013-09-02 16:15:00
11:35 AM,87.8,68.0,52,30.01,10.0,North,4.6,-,N/A,,Clear,10,2013-09-02 16:35:00
11:55 AM,87.8,68.0,52,30.01,10.0,NNW,3.5,-,N/A,,Scattered Clouds,340,2013-09-02 16:55:00
12:15 PM,87.8,68.0,52,30.00,10.0,Calm,Calm,-,N/A,,Scattered Clouds,0,2013-09-02 17:15:00
12:35 PM,89.6,68.0,49,29.99,10.0,NNE,4.6,-,N/A,,Mostly Cloudy,20,2013-09-02 17:35:00
12:55 PM,89.6,66.2,46,29.99,10.0,West,6.9,-,N/A,,Scattered Clouds,270,2013-09-02 17:55:00
1:15 PM,91.4,66.2,43,29.98,10.0,West,6.9,-,N/A,,Scattered Clouds,280,2013-09-02 18:15:00
1:35 PM,91.4,64.4,41,29.97,10.0,West,3.5,-,N/A,,Scattered Clouds,270,2013-09-02 18:35:00
1:55 PM,91.4,64.4,41,29.96,10.0,Calm,Calm,-,N/A,,Scattered Clouds,0,2013-09-02 18:55:00
2:15 PM,91.4,64.4,41,29.96,10.0,Calm,Calm,-,N/A,,Scattered Clouds,0,2013-09-02 19:15:00
2:35 PM,91.4,64.4,41,29.94,10.0,NNW,4.6,-,N/A,,Scattered Clouds,340,2013-09-02 19:35:00
2:55 PM,91.4,64.4,41,29.94,10.0,NNE,3.5,-,N/A,,Scattered Clouds,20,2013-09-02 19:55:00
3:15 PM,95.0,62.6,34,29.92,10.0,ENE,6.9,-,N/A,,Clear,60,2013-09-02 20:15:00
3:35 PM,93.2,60.8,34,29.91,10.0,NNE,4.6,-,N/A,,Scattered Clouds,30,2013-09-02 20:35:00
3:55 PM,95.0,62.6,34,29.90,10.0,NNE,5.8,-,N/A,,Scattered Clouds,20,2013-09-02 20:55:00
4:15 PM,95.0,62.6,34,29.90,10.0,North,8.1,-,N/A,,Scattered Clouds,360,2013-09-02 21:15:00
4:35 PM,95.0,62.6,34,29.89,10.0,NNE,5.8,-,N/A,,Scattered Clouds,20,2013-09-02 21:35:00
4:55 PM,95.0,62.6,34,29.89,10.0,ENE,8.1,-,N/A,,Scattered Clouds,60,2013-09-02 21:55:00
5:15 PM,93.2,62.6,36,29.89,10.0,NE,9.2,-,N/A,,Scattered Clouds,50,2013-09-02 22:15:00
5:35 PM,93.2,62.6,36,29.88,10.0,NE,10.4,-,N/A,,Scattered Clouds,50,2013-09-02 22:35:00
5:55 PM,91.4,62.6,38,29.88,10.0,ENE,10.4,16.1,N/A,,Scattered Clouds,60,2013-09-02 22:55:00
6:15 PM,91.4,62.6,38,29.88,10.0,ENE,10.4,-,N/A,,Clear,60,2013-09-02 23:15:00
6:35 PM,91.4,62.6,38,29.88,10.0,ENE,9.2,-,N/A,,Clear,60,2013-09-02 23:35:00
6:55 PM,89.6,62.6,40,29.88,10.0,NE,9.2,-,N/A,,Clear,40,2013-09-02 23:55:00
7:15 PM,89.6,62.6,40,29.89,10.0,NE,10.4,-,N/A,,Clear,40,2013-09-03 00:15:00
7:35 PM,87.8,62.6,43,29.89,10.0,NE,9.2,-,N/A,,Clear,40,2013-09-03 00:35:00
7:55 PM,87.8,62.6,43,29.90,10.0,NE,8.1,-,N/A,,Clear,50,2013-09-03 00:55:00
8:15 PM,86.0,62.6,45,29.91,10.0,NE,9.2,16.1,N/A,,Clear,50,2013-09-03 01:15:00
8:35 PM,84.2,60.8,45,29.92,10.0,NE,6.9,-,N/A,,Clear,50,2013-09-03 01:35:00
8:55 PM,82.4,60.8,48,29.93,10.0,NE,6.9,-,N/A,,Clear,40,2013-09-03 01:55:00
9:15 PM,82.4,59.0,45,29.94,10.0,NE,9.2,-,N/A,,Clear,50,2013-09-03 02:15:00
9:35 PM,82.4,59.0,45,29.95,10.0,NE,6.9,-,N/A,,Clear,40,2013-09-03 02:35:00
9:55 PM,80.6,59.0,48,29.96,10.0,NE,6.9,-,N/A,,Clear,40,2013-09-03 02:55:00
10:15 PM,80.6,59.0,48,29.97,10.0,NE,5.8,-,N/A,,Clear,40,2013-09-03 03:15:00
10:35 PM,78.8,59.0,51,29.97,10.0,ENE,3.5,-,N/A,,Clear,60,2013-09-03 03:35:00
10:55 PM,78.8,59.0,51,29.97,10.0,NE,3.5,-,N/A,,Clear,40,2013-09-03 03:55:00
11:15 PM,77.0,59.0,54,29.97,10.0,NE,3.5,-,N/A,,Clear,40,2013-09-03 04:15:00
11:35 PM,77.0,59.0,54,29.98,10.0,NE,3.5,-,N/A,,Clear,50,2013-09-03 04:35:00
11:55 PM,77.0,59.0,54,29.98,10.0,ENE,3.5,-,N/A,,Clear,60,2013-09-03 04:55:00